sat.trackr.live / text

‹ back to catalog

BEIJING 1

NORAD 28890 · 2005-043A

PAYLOAD ACTIVE UNKNOWN

§ Identity

Operator
Country
PRC
Launch date
2005-10-27
Launch site
PLMSC
Launch vehicle
Mass (kg)
RCS (m²)
0.35

Purposes: earth_obs

External: N2YO · Heavens-Above · Gunter

§ Orbital elements

Epoch: 2026-09-19T23:25:31.147680Z

Period
98.39 min
Inclination
98.3049°
Eccentricity
0.0014429
Mean motion
14.63578490 rev/d
Perigee alt
671.5 km
Apogee alt
691.8 km
Semi-major
7,059.8 km
B*
2.6578e-5
RAAN
36.7896°
Arg perigee
350.5347°
Mean anomaly
9.5581°
Rev number
11,451

§ Raw data

BEIJING 11 28890U 05043A   26262.97605495  .00000089  00000+0  26578-4 0  99902 28890  98.3049  36.7896 0014429 350.5347   9.5581 14.63578490114515

JSON: /api/v1/satellites/28890 · /tle

For live sub-satellite position, see the globe view (requires WebGL).

§ Visibility from observer

Set your observer location to see the next 7 days of passes ≥ 10°. The values pass through the URL so the page stays shareable.

No JS? Fill the form by hand. The geolocation button needs JavaScript.